Location: Goheenville
(40.9070°N, 79.3720°W)
Time: 09:33:01
(UTC-04:00)

Meteor 2-10 Rocket - Visible Passes

Search period start: 26 June 2016 00:00
Search period end: 06 July 2016 00:00
Orbit: 734 x 885 km, 81.2° (Epoch: 25 June)

Date Brightness Start Highest point End Pass type
(mag) Time Alt. Az. Time Alt. Az. Time Alt. Az.
26 Jun 4.4 00:41:31 10° N 00:46:46 42° ENE 00:47:50 38° ESE visible
26 Jun 5.0 02:24:06 10° NW 02:28:34 25° W 02:28:58 25° W visible
27 Jun 4.9 00:17:30 10° N 00:22:25 31° ENE 00:23:43 28° E visible
27 Jun 4.6 01:59:26 10° NNW 02:04:27 35° W 02:04:51 34° W visible
27 Jun 5.3 23:53:40 10° NNE 23:58:01 23° ENE 23:59:37 20° E visible
28 Jun 4.1 01:34:56 10° NNW 01:40:17 48° W 01:40:45 47° WSW visible
28 Jun 5.6 23:30:02 10° NNE 23:33:34 17° ENE 23:35:32 14° E visible
29 Jun 3.7 01:10:32 10° NNW 01:16:07 68° W 01:16:40 63° SW visible
29 Jun 5.9 23:06:56 10° NE 23:09:03 12° ENE 23:11:11 10° E visible
30 Jun 3.6 00:46:14 10° N 00:51:53 87° E 00:52:36 70° SSE visible
30 Jun 5.9 02:31:16 10° WNW 02:33:07 12° W 02:33:45 11° W visible
01 Jul 3.8 00:22:00 10° N 00:27:37 64° ENE 00:28:33 55° ESE visible
01 Jul 5.6 02:05:37 10° NW 02:09:06 17° W 02:09:42 17° W visible
01 Jul 4.3 23:57:53 10° N 00:03:20 46° ENE 00:04:31 40° ESE visible
02 Jul 5.2 01:40:39 10° NW 01:45:02 24° W 01:45:39 23° W visible
02 Jul 4.7 23:33:52 10° N 23:38:59 34° ENE 23:40:30 29° ESE visible
03 Jul 4.8 01:15:57 10° NNW 01:20:57 32° W 01:21:38 32° WSW visible
03 Jul 5.1 23:09:57 10° NNE 23:14:36 25° ENE 23:16:29 21° E visible
04 Jul 4.3 00:51:25 10° NNW 00:56:49 45° W 00:57:38 42° WSW visible
04 Jul 5.5 22:46:15 10° NNE 22:50:09 18° ENE 22:52:29 15° E visible
05 Jul 3.9 00:27:00 10° NNW 00:32:38 63° W 00:33:38 54° SW visible
05 Jul 5.8 22:22:55 10° NE 22:25:39 13° ENE 22:28:23 10° E visible
